[[{"header":{"parameterUnit":"m.s-1","parameterCategory":1,"la1":30.2991,"la2":30.254,"lo1":-89.0895,"lo2":-89.0444,"dy":0.0017,"dx":0.0017,"nx":28,"ny":28,"refTime":"2024-12-16T03:00:00:Z","depth":0,"parameterNumber":2,"parameterNumberName":"U-component_of_WINDS"},"data":[0,0,0,0,0,0,0,0,0,0,0,0,0,0,0,0,0,0,0,0,0,0,0,0,0,0,0,0,0,0,0,0,0,0,0,0,0,0,0,0,0,0,0,0,0,0,0,0,0,0,0,0,0,0,0,0,0,0,-4.2844,-4.2844,0,-4.2875,-4.2876,-4.2876,-4.2766,-4.2763,-4.276,-4.2757,-4.2793,-4.2797,-4.2801,0,0,0,0,0,0,0,0,0,0,0,0,0,-4.2694,-4.2698,-4.2844,-4.2844,-4.2845,-4.2875,-4.2876,-4.2876,-4.2767,-4.2763,-4.2759,-4.2755,-4.2791,-4.2796,-4.2801,0,0,0,0,0,0,0,0,0,0,0,0,0,-4.2746,-4.2699,-4.2844,-4.2794,-4.279,-4.2875,-4.2876,-4.2876,-4.2768,-4.2763,-4.2758,-4.2753,-4.279,-4.2796,-4.2802,-4.2938,0,0,-4.282,-4.2823,0,0,0,0,0,0,0,0,-4.2743,-4.2752,-4.2801,-4.2797,-4.2793,-4.2812,-4.2836,-4.2897,-4.2769,-4.2776,-4.2757,-4.2751,-4.2803,-4.2808,-4.2825,-4.294,-4.2941,-4.2821,-4.2824,-4.2827,-4.2829,0,0,0,0,0,0,0,-4.274,-4.275,-4.2856,-4.2802,-4.2797,-4.2771,-4.2773,-4.2847,-4.2817,-4.2775,-4.2767,-4.2772,-4.28,-4.2819,-4.2825,-4.2942,-4.2821,-4.2826,-4.283,-4.2832,-4.3174,-4.3179,0,0,0,0,0,0,-4.2742,-4.2747,-4.2855,-4.2857,-4.2755,-4.2778,-4.278,-4.2811,-4.2816,-4.2812,-4.2777,-4.2767,-4.2811,-4.2818,-4.2826,-4.2988,-4.2827,-4.2833,-4.2836,-4.3169,-4.3175,-4.3181,0,0,0,0,0,0,-4.2739,-4.2753,-4.2854,-4.28,-4.2811,-4.2786,-4.2821,-4.2814,-4.2833,-4.2817,-4.2812,-4.2801,-4.2808,-4.2817,-4.2911,-4.2988,-4.2835,-4.2841,-4.3162,-4.3171,-4.3178,-4.3313,0,0,0,0,0,0,-4.2736,-4.2752,-4.2803,-4.2802,-4.2814,-4.2938,-4.2826,-4.2818,-4.2843,-4.2831,-4.2839,-4.2835,-4.2805,-4.2903,-4.2918,-4.2993,-4.2846,-4.3155,-4.3166,-4.3176,-4.3301,-4.3324,-4.3344,0,0,0,0,0,-4.2731,-4.2839,-4.2806,-4.2819,-4.2876,-4.2943,-4.295,-4.2911,-4.285,-4.2901,-4.2891,-4.2835,-4.2977,-4.2914,-4.2929,-4.3008,-4.315,-4.3163,-4.3175,-4.3292,-4.332,-4.3344,0,0,0,0,0,0,-4.285,-4.2838,-4.2801,-4.2912,-4.2929,-4.2924,-4.2987,-4.2942,-4.2977,-4.2965,-4.2916,-4.2919,-4.3023,-4.3024,-4.2954,-4.3142,-4.3053,-4.3069,-4.3137,-4.3163,-4.3185,-4.3183,-4.2851,0,0,0,0,0,-4.2889,-4.2943,-4.293,-4.303,-4.304,-4.3013,-4.304,-4.3009,-4.3025,-4.3032,-4.3029,-4.3048,-4.3097,-4.313,-4.3174,-4.3301,-4.3302,-4.3363,-4.3384,-4.3402,-4.3417,-4.3487,-4.3514,-4.3221,-4.3221,-4.3221,0,0,-4.2971,-4.2971,-4.3008,-4.3054,-4.3063,-4.3121,-4.3019,-4.3084,-4.3128,-4.3042,-4.3131,-4.313,-4.3148,-4.326,-4.3309,-4.3265,-4.3498,-4.3418,-4.3432,-4.3437,-4.3502,-4.353,-4.3555,-4.323,-4.3228,-4.3227,0,0,-4.315,-4.3155,-4.3239,-4.3251,-4.3267,-4.3248,-4.3269,-4.3271,-4.3267,-4.3355,-4.3293,-4.3345,-4.3429,-4.3445,-4.3465,-4.3653,-4.3604,-4.3669,-4.3782,-4.3851,-4.3874,-4.3894,-4.3963,-4.3989,-4.3684,-4.3684,-4.3684,0,-4.325,-4.3334,-4.3289,-4.3359,-4.3383,-4.3307,-4.3394,-4.3408,-4.3438,-4.3457,-4.3406,-4.3512,-4.3519,-4.3635,-4.3682,-4.3699,-4.3723,-4.3668,-4.3874,-4.3894,-4.3912,-4.3978,-4.4004,-4.3692,-4.3691,-4.369,-4.369,0,-4.3457,-4.3517,-4.3583,-4.3614,-4.3645,-4.3723,-4.3692,-4.3729,-4.3696,-4.3684,-4.3777,-4.3783,-4.3828,-4.3853,-4.3821,-4.3966,-4.3938,-4.3881,-4.3792,-4.3949,-4.401,-4.4034,-4.3703,-4.3701,-4.3698,-4.3696,0,0,-4.3711,-4.3717,-4.3743,-4.3757,-4.377,-4.3816,-4.3892,-4.3935,-4.3969,-4.3993,-4.4057,-4.4132,-4.4081,-4.4103,-4.4073,-4.4133,-4.4285,-4.4069,-4.4069,-4.4111,-4.4448,-4.4492,-4.4521,-4.4252,-4.4257,-4.4261,-4.4447,0,-4.3889,-4.4018,-4.3981,-4.4111,-4.4167,-4.4098,-4.4165,-4.4181,-4.4172,-4.422,-4.421,-4.4265,-4.4192,-4.4205,-4.4262,-4.4255,-4.4353,-4.4241,-4.4314,-4.4317,-4.4313,-4.4553,-4.4598,-4.4774,-4.4471,-4.4475,-4.4478,0,-4.4112,-4.4145,-4.4281,-4.4287,-4.4309,-4.437,-4.4408,-4.4454,-4.4472,-4.4462,-4.4488,-4.4446,-4.4524,-4.4434,-4.4542,-4.4466,-4.4495,-4.4496,-4.4502,-4.4508,-4.4408,-4.4568,-4.4829,-4.4856,-4.4514,-4.4511,-4.4509,0,-4.4287,-4.4365,-4.4457,-4.4471,-4.4479,-4.4524,-4.453,-4.4543,-4.4573,-4.4607,-4.4626,-4.4669,-4.4694,-4.4729,-4.4701,-4.4638,-4.4815,-4.4721,-4.4811,-4.4812,-4.4852,-4.485,-4.5123,-4.4868,-4.4867,-4.4867,-4.4866,0,-4.4489,-4.4576,-4.4535,-4.4592,-4.4688,-4.4646,-4.4743,-4.4741,-4.4754,-4.4811,-4.4754,-4.4809,-4.4768,-4.4821,-4.48,-4.4894,-4.4905,-4.49,-4.4894,-4.4906,-4.4907,-4.4925,-4.4912,-4.4874,-4.4872,-4.4871,-4.487,0,-4.47,-4.4676,-4.4772,-4.4773,-4.4776,-4.4847,-4.4848,-4.4902,-4.489,-4.4963,-4.4978,-4.4959,-4.5018,-4.4994,-4.5056,-4.5042,-4.5164,-4.514,-4.5157,-4.5152,-4.5243,-4.5236,-4.5539,-4.5577,-4.5296,-4.5298,-4.5301,0,-4.4831,-4.4896,-4.4905,-4.4939,-4.4949,-4.5003,-4.5033,-4.4996,-4.503,-4.5057,-4.5109,-4.5163,-4.5204,-4.5302,-4.5295,-4.5343,-4.5322,-4.5425,-4.5329,-4.534,-4.5326,-4.5323,-4.5331,-4.5444,-4.5448,-4.545,-4.5452,0,-4.5068,-4.5054,-4.5098,-4.514,-4.5178,-4.5209,-4.5235,-4.5267,-4.5231,-4.5272,-4.5332,-4.5364,-4.5428,-4.5483,-4.5527,-4.5535,-4.549,-4.5483,-4.5506,-4.552,-4.5528,-4.5527,-4.5212,-4.5476,-4.5474,-4.5472,-4.5471,-4.547,-4.5244,-4.53,-4.5315,-4.5368,-4.5384,-4.5411,-4.5462,-4.5457,-4.5505,-4.5554,-4.5529,-4.5599,-4.5619,-4.5672,-4.5687,-4.5743,-4.5703,-4.5736,-4.5745,-4.5755,-4.5768,-4.5519,-4.5751,-4.575,-4.5749,-4.5749,-4.5748,0,-4.5479,-4.5486,-4.5535,-4.5574,-4.5617,-4.5569,-4.5596,-4.5636,-4.5698,-4.5719,-4.5761,-4.5831,-4.5885,-4.5884,-4.5934,-4.5979,-4.596,-4.5994,-4.5991,-4.5995,-4.5799,-4.5775,-4.6009,-4.6009,-4.6009,-4.6009,-4.6009,-4.6009,-4.5606,-4.5699,-4.5687,-4.5788,-4.5794,-4.5862,-4.5882,-4.5908,-4.5925,-4.6006,-4.605,-4.6048,-4.6062,-4.6113,-4.6162,-4.616,-4.6182,-4.6225,-4.6216,-4.6034,-4.6008,-4.5983,-4.596,-4.6229,-4.623,-4.6406,-4.6408,-4.6409]},{"header":{"parameterUnit":"m.s-1","parameterCategory":1,"la1":30.2991,"la2":30.254,"lo1":-89.0895,"lo2":-89.0444,"dy":0.0017,"dx":0.0017,"nx":28,"ny":28,"refTime":"2024-12-16T03:00:00:Z","depth":0,"parameterNumber":3,"parameterNumberName":"V-component_of_WINDS"},"data":[0,0,0,0,0,0,0,0,0,0,0,0,0,0,0,0,0,0,0,0,0,0,0,0,0,0,0,0,0,0,0,0,0,0,0,0,0,0,0,0,0,0,0,0,0,0,0,0,0,0,0,0,0,0,0,0,0,0,-0.2405,-0.2405,0,-0.2411,-0.2411,-0.2411,-0.2402,-0.2401,-0.2401,-0.2401,-0.2407,-0.2407,-0.2408,0,0,0,0,0,0,0,0,0,0,0,0,0,-0.2383,-0.2384,-0.2405,-0.2405,-0.2405,-0.2411,-0.2411,-0.2411,-0.2402,-0.2401,-0.2401,-0.2401,-0.2407,-0.2407,-0.2408,0,0,0,0,0,0,0,0,0,0,0,0,0,-0.2391,-0.2384,-0.2405,-0.2401,-0.2401,-0.2411,-0.2411,-0.2411,-0.2402,-0.2401,-0.2401,-0.24,-0.2406,-0.2407,-0.2408,-0.2422,0,0,-0.241,-0.241,0,0,0,0,0,0,0,0,-0.2391,-0.2392,-0.2401,-0.2401,-0.2401,-0.2405,-0.2405,-0.2414,-0.2402,-0.2401,-0.2401,-0.24,-0.2406,-0.2407,-0.2409,-0.2422,-0.2422,-0.241,-0.241,-0.2411,-0.2411,0,0,0,0,0,0,0,-0.239,-0.2392,-0.2407,-0.2401,-0.2401,-0.2398,-0.2399,-0.2407,-0.2407,-0.2401,-0.2401,-0.2402,-0.2406,-0.2409,-0.2409,-0.2422,-0.241,-0.241,-0.2411,-0.2411,-0.2444,-0.2445,0,0,0,0,0,0,-0.239,-0.2391,-0.2407,-0.2407,-0.2395,-0.2399,-0.24,-0.2404,-0.2406,-0.2406,-0.2402,-0.2401,-0.2408,-0.2409,-0.241,-0.2425,-0.2411,-0.2411,-0.2412,-0.2444,-0.2444,-0.2445,0,0,0,0,0,0,-0.239,-0.2392,-0.2407,-0.2399,-0.2401,-0.24,-0.2405,-0.2404,-0.2407,-0.2407,-0.2407,-0.2405,-0.2407,-0.2409,-0.2418,-0.2425,-0.2412,-0.2412,-0.2443,-0.2444,-0.2444,-0.2456,0,0,0,0,0,0,-0.2389,-0.2392,-0.2398,-0.2399,-0.2401,-0.2416,-0.2405,-0.2405,-0.2408,-0.2407,-0.2409,-0.2409,-0.2407,-0.2417,-0.2419,-0.2425,-0.2413,-0.2443,-0.2443,-0.2444,-0.2455,-0.2457,-0.2458,0,0,0,0,0,-0.2389,-0.2401,-0.2398,-0.24,-0.2409,-0.2416,-0.2417,-0.2415,-0.2409,-0.2414,-0.2414,-0.2409,-0.2424,-0.2418,-0.242,-0.2427,-0.2442,-0.2443,-0.2444,-0.2454,-0.2456,-0.2458,0,0,0,0,0,0,-0.2401,-0.2401,-0.2398,-0.2411,-0.2414,-0.2415,-0.2422,-0.2417,-0.2422,-0.242,-0.2417,-0.2417,-0.2427,-0.2428,-0.2422,-0.2439,-0.2432,-0.2433,-0.2439,-0.2441,-0.2443,-0.2442,-0.2413,0,0,0,0,0,-0.2405,-0.2411,-0.2411,-0.2423,-0.2424,-0.2423,-0.2426,-0.2423,-0.2426,-0.2427,-0.2427,-0.2429,-0.2434,-0.2438,-0.2442,-0.2455,-0.2454,-0.246,-0.2462,-0.2463,-0.2465,-0.247,-0.2472,-0.2448,-0.2448,-0.2448,0,0,-0.2414,-0.2415,-0.2419,-0.2425,-0.2427,-0.2433,-0.2424,-0.2431,-0.2435,-0.2428,-0.2437,-0.2437,-0.2439,-0.2449,-0.2454,-0.245,-0.2471,-0.2465,-0.2466,-0.2466,-0.2471,-0.2473,-0.2475,-0.2449,-0.2449,-0.2449,0,0,-0.2433,-0.2434,-0.2444,-0.2445,-0.2447,-0.2445,-0.2447,-0.2449,-0.2448,-0.2457,-0.2451,-0.2456,-0.2465,-0.2466,-0.2468,-0.2484,-0.248,-0.2486,-0.2496,-0.25,-0.2502,-0.2504,-0.2509,-0.2511,-0.2487,-0.2487,-0.2487,0,-0.2443,-0.2453,-0.2449,-0.2456,-0.2458,-0.2451,-0.246,-0.2461,-0.2465,-0.2466,-0.2462,-0.2471,-0.2472,-0.2482,-0.2486,-0.2488,-0.249,-0.2486,-0.2502,-0.2504,-0.2505,-0.251,-0.2512,-0.2488,-0.2488,-0.2488,-0.2488,0,-0.2465,-0.2471,-0.2478,-0.2481,-0.2484,-0.2492,-0.2488,-0.2492,-0.2488,-0.2487,-0.2495,-0.2495,-0.2499,-0.2501,-0.2499,-0.251,-0.2508,-0.2503,-0.2495,-0.2508,-0.2513,-0.2514,-0.2489,-0.2489,-0.2488,-0.2488,0,0,-0.2493,-0.2492,-0.2495,-0.2495,-0.2496,-0.25,-0.2507,-0.251,-0.2513,-0.2515,-0.252,-0.2526,-0.2521,-0.2523,-0.252,-0.2524,-0.2536,-0.2519,-0.2519,-0.2521,-0.2548,-0.2551,-0.2553,-0.2533,-0.2533,-0.2534,-0.2547,0,-0.2511,-0.2523,-0.2519,-0.253,-0.2535,-0.2527,-0.2533,-0.2533,-0.2532,-0.2535,-0.2533,-0.2537,-0.2531,-0.2532,-0.2536,-0.2534,-0.2541,-0.2533,-0.2537,-0.2537,-0.2536,-0.2556,-0.256,-0.2573,-0.2549,-0.2549,-0.2549,0,-0.2534,-0.2536,-0.2548,-0.2546,-0.2548,-0.2553,-0.2555,-0.2559,-0.2558,-0.2557,-0.2558,-0.2553,-0.2559,-0.2551,-0.2558,-0.2552,-0.2553,-0.2552,-0.2552,-0.2553,-0.2544,-0.2556,-0.2577,-0.2579,-0.2552,-0.2552,-0.2552,0,-0.2552,-0.2558,-0.2566,-0.2566,-0.2565,-0.2568,-0.2567,-0.2567,-0.2568,-0.257,-0.257,-0.2572,-0.2573,-0.2575,-0.257,-0.2565,-0.2577,-0.2569,-0.2575,-0.2575,-0.2579,-0.2578,-0.26,-0.258,-0.258,-0.258,-0.258,0,-0.2573,-0.258,-0.2573,-0.2578,-0.2585,-0.258,-0.2587,-0.2586,-0.2585,-0.2588,-0.2582,-0.2585,-0.2579,-0.2582,-0.2578,-0.2584,-0.2584,-0.2583,-0.2582,-0.2583,-0.2583,-0.2584,-0.2583,-0.258,-0.258,-0.258,-0.258,0,-0.2595,-0.2591,-0.2598,-0.2595,-0.2594,-0.26,-0.2597,-0.2601,-0.2598,-0.2602,-0.2603,-0.2598,-0.2601,-0.2596,-0.2598,-0.2596,-0.2603,-0.2601,-0.2603,-0.2602,-0.2608,-0.2608,-0.2631,-0.2633,-0.2612,-0.2612,-0.2612,0,-0.2608,-0.2613,-0.261,-0.2612,-0.2612,-0.2615,-0.2616,-0.261,-0.2611,-0.261,-0.2614,-0.2615,-0.2616,-0.262,-0.2617,-0.2618,-0.2615,-0.2623,-0.2616,-0.2616,-0.2615,-0.2614,-0.2614,-0.2625,-0.2625,-0.2625,-0.2626,0,-0.2632,-0.2629,-0.2631,-0.2631,-0.2633,-0.2633,-0.2633,-0.2635,-0.2628,-0.263,-0.2632,-0.2632,-0.2634,-0.2635,-0.2635,-0.2634,-0.2628,-0.2628,-0.2629,-0.2631,-0.2631,-0.263,-0.2607,-0.2627,-0.2627,-0.2627,-0.2627,-0.2627,-0.2649,-0.2653,-0.2651,-0.2653,-0.2652,-0.2651,-0.2654,-0.265,-0.2652,-0.2652,-0.2649,-0.2651,-0.2649,-0.2648,-0.2647,-0.2649,-0.2645,-0.2647,-0.2648,-0.2648,-0.2649,-0.2631,-0.2649,-0.2649,-0.2649,-0.2649,-0.2648,0,-0.2672,-0.267,-0.2671,-0.2671,-0.2672,-0.2666,-0.2665,-0.2666,-0.2668,-0.2666,-0.2667,-0.2668,-0.2669,-0.2665,-0.2665,-0.2667,-0.2664,-0.2667,-0.2667,-0.2666,-0.2653,-0.2651,-0.2669,-0.2669,-0.2669,-0.2669,-0.2669,-0.2669,-0.2684,-0.2689,-0.2686,-0.269,-0.2687,-0.2689,-0.2689,-0.2688,-0.2686,-0.2688,-0.2688,-0.2686,-0.2683,-0.2682,-0.2682,-0.2681,-0.2681,-0.2685,-0.2682,-0.267,-0.2668,-0.2666,-0.2664,-0.2685,-0.2685,-0.2696,-0.2696,-0.2696]}]]